FW4518 Weather Reports


Display with metric or nautical units.
time (UTC)temp
F
wind
direction
speed
MPH
gust
MPH
rain 1hr
in
rain 24hr
in
rain mn
in
humidity
%
barometer
mb
20260510092624 46 0.0 0.0 0.00 0.00 0.00 76 1017.8
20260510091624 46 0.0 0.0 0.00 0.00 0.00 76 1017.8
20260510090644 47 0.0 0.0 0.00 0.00 0.00 75 1017.8
20260510085624 47 0.0 0.0 0.00 0.00 0.00 75 1017.9
20260510084624 48 0.0 0.0 0.00 0.00 0.00 75 1017.8
20260510083624 49 0.0 0.0 0.00 0.00 0.00 72 1017.7
20260510082624 49 0.0 0.0 0.00 0.00 0.00 71 1017.7
20260510081624 49 0.0 0.0 0.00 0.00 0.00 70 1017.8
20260510080705 49 0.0 0.0 0.00 0.00 0.00 70 1017.8
20260510075624 50 0.0 0.0 0.00 0.00 0.00 71 1017.9
20260510074624 50 0.0 0.0 0.00 0.00 0.00 70 1017.9
20260510073624 51 0.0 0.0 0.00 0.00 0.00 68 1017.8
20260510072625 51 0.0 0.0 0.00 0.00 0.00 67 1017.8
20260510071624 52 0.0 0.0 0.00 0.00 0.00 68 1017.9
20260510070624 53 0.0 0.0 0.00 0.00 0.00 64 1017.9
20260510065705 54 0.0 0.0 0.00 0.00 0.00 63 1017.8
20260510064624 55 0.0 0.0 0.00 0.00 0.00 63 1017.8
20260510063624 56 0.0 0.0 0.00 0.00 0.00 62 1017.7
20260510062624 58 0.0 0.0 0.00 0.00 0.00 60 1017.6
20260510061644 59 0.0 0.0 0.00 0.00 0.00 57 1017.6
20260510060644 62 0.0 0.0 0.00 0.00 0.00 53 1017.6
20260510055705 63 6 0.0 3.0 0.00 0.00 0.00 52 1017.6
20260510054625 63 358 1.0 3.0 0.00 0.00 0.00 52 1017.5
20260510053645 64 19 3.0 4.0 0.00 0.00 0.00 51 1017.5
20260510052624 65 12 4.0 7.0 0.00 0.00 0.00 49 1017.6
20260510051624 64 194 4.0 6.0 0.00 0.00 0.00 49 1017.5
20260510050624 65 58 5.0 8.0 0.00 0.00 0.00 48 1017.4
20260510045625 66 6 5.0 8.0 0.00 0.00 0.00 46 1017.3
20260510044624 65 14 3.0 6.0 0.00 0.00 0.00 46 1017.3
20260510043627 66 25 3.0 7.0 0.00 0.00 0.00 45 1017.2
20260510042645 66 18 3.0 6.0 0.00 0.00 0.00 44 1017.2
20260510041625 66 12 3.0 5.0 0.00 0.00 0.00 43 1017.1
20260510040624 67 360 2.0 5.0 0.00 0.00 0.00 43 1016.9
20260510035625 68 10 2.0 5.0 0.00 0.00 0.00 41 1016.8
20260510034625 68 9 4.0 7.0 0.00 0.00 0.00 39 1016.7
20260510033625 69 12 4.0 6.0 0.00 0.00 0.00 37 1016.5
20260510032626 69 2 5.0 6.0 0.00 0.00 0.00 36 1016.5
20260510031625 70 22 4.0 7.0 0.00 0.00 0.00 35 1016.4
20260510030625 71 4 5.0 8.0 0.00 0.00 0.00 35 1016.2
20260510025625 72 17 5.0 8.0 0.00 0.00 0.00 34 1016.2
20260510024625 74 303 6.0 9.0 0.00 0.00 0.00 34 1016.2
20260510023625 76 338 3.0 8.0 0.00 0.00 0.00 32 1016.1
20260510022625 76 16 4.0 8.0 0.00 0.00 0.00 32 1016.2
20260510021625 77 11 4.0 7.0 0.00 0.00 0.00 32 1016.2
20260510020625 77 335 5.0 9.0 0.00 0.00 0.00 32 1016.1
20260510015626 78 19 5.0 11.0 0.00 0.00 0.00 33 1016.2
20260510014645 77 4 6.0 10.0 0.00 0.00 0.00 33 1016.3
20260510013625 78 5 7.0 12.0 0.00 0.00 0.00 32 1016.4
20260510012625 78 13 7.0 12.0 0.00 0.00 0.00 32 1016.4
20260510011626 79 17 7.0 13.0 0.00 0.00 0.00 32 1016.4
20260510010625 79 22 7.0 12.0 0.00 0.00 0.00 31 1016.3
20260510005625 79 18 6.0 10.0 0.00 0.00 0.00 31 1016.3
20260510004625 78 20 6.0 10.0 0.00 0.00 0.00 31 1016.4
20260510003625 79 22 8.0 12.0 0.00 0.00 0.00 30 1016.4
20260510002625 79 360 6.0 9.0 0.00 0.00 0.00 30 1016.5
20260510001625 80 120 6.0 11.0 0.00 0.00 0.00 29 1016.6
20260510000650 80 21 7.0 10.0 0.00 0.00 0.00 29 1016.8
20260509235626 82 349 5.0 9.0 0.00 0.00 0.00 27 1016.8
20260509234625 81 12 4.0 9.0 0.00 0.00 0.00 27 1016.9
20260509233626 83 58 3.0 7.0 0.00 0.00 0.00 26 1017.0
20260509232647 79 13 2.0 7.0 0.00 0.00 0.00 24 1017.3
20260509231628 80 359 0.0 2.0 0.00 0.00 0.00 24 1017.3
20260509230625 80 10 1.0 7.0 0.00 0.00 0.00 23 1017.4
20260509225645 81 178 2.0 6.0 0.00 0.00 0.00 26 1017.5
20260509224625 80 164 3.0 6.0 0.00 0.00 0.00 27 1017.7
20260509223625 80 180 3.0 7.0 0.00 0.00 0.00 26 1017.8
20260509222646 79 142 2.0 5.0 0.00 0.00 0.00 25 1018.0
20260509221625 79 196 3.0 7.0 0.00 0.00 0.00 26 1018.1
20260509220626 77 178 2.0 6.0 0.00 0.00 0.00 26 1018.3
20260509215628 80 194 2.0 6.0 0.00 0.00 0.00 27 1018.4
20260509214646 78 193 4.0 7.0 0.00 0.00 0.00 27 1018.7
20260509213625 78 261 3.0 8.0 0.00 0.00 0.00 25 1018.7
20260509212626 79 140 1.0 6.0 0.00 0.00 0.00 28 1018.8
20260509211625 78 211 2.0 6.0 0.00 0.00 0.00 27 1019.0
20260509210625 78 6 1.0 4.0 0.00 0.00 0.00 27 1019.1
20260509205625 77 178 4.0 7.0 0.00 0.00 0.00 27 1019.3
20260509204625 78 140 2.0 7.0 0.00 0.00 0.00 27 1019.4
20260509203625 76 287 1.0 4.0 0.00 0.00 0.00 29 1019.5
20260509202645 77 82 2.0 7.0 0.00 0.00 0.00 29 1019.6
20260509201625 77 154 3.0 9.0 0.00 0.00 0.00 31 1019.7
20260509200625 76 196 1.0 5.0 0.00 0.00 0.00 31 1019.8
20260509195626 74 169 5.0 8.0 0.00 0.00 0.00 34 1020.0
20260509194626 74 180 2.0 5.0 0.00 0.00 0.00 33 1020.1
20260509193625 73 215 2.0 4.0 0.00 0.00 0.00 30 1020.3
20260509192626 73 181 2.0 5.0 0.00 0.00 0.00 29 1020.5
20260509191628 74 169 3.0 7.0 0.00 0.00 0.00 32 1020.6
20260509190627 74 114 3.0 8.0 0.00 0.00 0.00 33 1020.8
20260509185646 73 197 3.0 8.0 0.00 0.00 0.00 32 1020.9
20260509184646 72 0.0 2.0 0.00 0.00 0.00 33 1021.1
20260509183625 70 196 3.0 8.0 0.00 0.00 0.00 35 1021.3
20260509182646 70 47 1.0 5.0 0.00 0.00 0.00 40 1021.4
20260509181626 68 108 6.0 10.0 0.00 0.00 0.00 41 1021.6
20260509180626 67 159 4.0 8.0 0.00 0.00 0.00 44 1021.7
20260509175646 66 183 3.0 6.0 0.00 0.00 0.00 47 1021.7
20260509174628 66 118 4.0 8.0 0.00 0.00 0.00 49 1021.8
20260509173626 64 145 4.0 9.0 0.00 0.00 0.00 51 1021.9
20260509172628 64 109 5.0 8.0 0.00 0.00 0.00 56 1021.9
20260509171626 62 72 6.0 9.0 0.00 0.00 0.00 57 1022.0
20260509170627 62 107 6.0 8.0 0.00 0.00 0.00 58 1022.1
20260509165626 61 168 5.0 9.0 0.00 0.00 0.00 60 1022.3
20260509164626 60 67 6.0 8.0 0.00 0.00 0.00 61 1022.4
20260509163646 59 74 5.0 8.0 0.00 0.00 0.00 61 1022.4
20260509162627 57 77 4.0 8.0 0.00 0.00 0.00 64 1022.6
20260509161627 57 127 5.0 9.0 0.00 0.00 0.00 65 1022.7
20260509160626 56 143 3.0 6.0 0.00 0.00 0.00 66 1022.6
20260509155626 55 168 4.0 9.0 0.00 0.00 0.00 67 1022.6
20260509154626 55 136 4.0 9.0 0.00 0.00 0.00 68 1022.7
20260509153626 54 64 5.0 9.0 0.00 0.00 0.00 68 1022.8
20260509152626 54 68 5.0 8.0 0.00 0.00 0.00 70 1023.0
20260509151626 53 106 5.0 10.0 0.00 0.00 0.00 73 1023.0
20260509150626 51 74 6.0 9.0 0.00 0.00 0.00 76 1023.0
20260509145626 50 48 6.0 9.0 0.00 0.00 0.00 77 1023.0
20260509144626 49 73 5.0 7.0 0.00 0.00 0.00 79 1023.0
20260509143626 48 94 6.0 8.0 0.00 0.00 0.00 83 1023.0
20260509142626 46 104 4.0 6.0 0.00 0.00 0.00 84 1023.0
20260509141626 44 167 1.0 5.0 0.00 0.00 0.00 90 1023.0
20260509140626 42 0.0 0.0 0.00 0.00 0.00 92 1023.1
20260509135626 40 171 0.0 2.0 0.00 0.00 0.00 96 1023.0
20260509134626 39 224 0.0 1.0 0.00 0.00 0.00 95 1023.1
20260509133626 39 0.0 0.0 0.00 0.00 0.00 95 1023.0
20260509132626 39 0.0 0.0 0.00 0.00 0.00 94 1022.9
20260509131627 39 0.0 0.0 0.00 0.00 0.00 95 1022.8
20260509130646 38 0.0 0.0 0.00 0.00 0.00 95 1022.7
20260509125627 38 0.0 1.0 0.00 0.00 0.00 94 1022.6
20260509124626 39 0.0 0.0 0.00 0.00 0.00 93 1022.4
20260509123627 39 154 2.0 3.0 0.00 0.00 0.00 93 1022.4
20260509122646 39 199 1.0 3.0 0.00 0.00 0.00 93 1022.5
20260509121626 40 0.0 0.0 0.00 0.00 0.00 91 1022.7
20260509120628 40 149 0.0 1.0 0.00 0.00 0.00 91 1022.9
20260509115626 40 225 0.0 2.0 0.00 0.00 0.00 91 1023.0
20260509114626 39 161 1.0 3.0 0.00 0.00 0.00 94 1023.0
20260509113626 38 204 0.0 2.0 0.00 0.00 0.00 98 1023.0
20260509112626 37 0.0 0.0 0.00 0.00 0.00 100 1023.0
20260509111626 37 0.0 0.0 0.00 0.00 0.00 100 1023.0
20260509110627 37 0.0 0.0 0.00 0.00 0.00 98 1022.9
20260509105626 38 0.0 0.0 0.00 0.00 0.00 97 1022.9
20260509104627 38 0.0 0.0 0.00 0.00 0.00 98 1022.9
20260509103627 39 0.0 0.0 0.00 0.00 0.00 96 1022.9
20260509102647 39 0.0 0.0 0.00 0.00 0.00 95 1023.0
20260509101626 40 0.0 0.0 0.00 0.00 0.00 96 1023.1
20260509100626 39 0.0 0.0 0.00 0.00 0.00 96 1023.2
20260509095627 39 0.0 0.0 0.00 0.00 0.00 93 1023.2
20260509094626 40 0.0 0.0 0.00 0.00 0.00 91 1023.1
20260509093626 41 0.0 0.0 0.00 0.00 0.00 89 1023.2